Home   Weather   Rheine   Past weeks

Flag for Germany Past Weather in Rheine, North Rhine-Westphalia, Germany — Yesterday and Last 2 Weeks

Now
68 °F

Mild.


Feels Like: 68 °F
Forecast: 62 / 80 °F
Wind: 6 mph from Southwest

Location: Rheine-Bentlage

Current Time: Jul 21, 2017 at 1:05:18 pm

Latest Report: Jul 21, 2017 at 12:20 pm


Visibility: N/A

Pressure: 29.98 "Hg

Humidity: 49%

Dew Point: 48 °F

Location of RheineLocation

Past Weather in Rheine — Graph

°F

Rheine Temperature Yesterday

Maximum temperature yesterday: 77 °F (at 5:20 pm)
Minimum temperature yesterday: 64 °F (at 4:20 am)
Average temperature yesterday: 69 °F

High & Low Weather Summary for the Past Weeks

 TemperatureHumidityPressure
High90 °F (Jul 19, 4:20 pm)100% (Jul 8, 7:20 am)30.21 "Hg (Jul 8, 7:20 am)
Low46 °F (Jul 13, 5:20 am)37% (Jul 6, 3:20 pm)29.71 "Hg (Jul 10, 5:20 pm)
Average65 °F73%29.98 "Hg
* Reported Jul 6 11:20 am — Jul 21 11:39 am, Rheine. Weather by CustomWeather, © 2017

Note: Actual official high and low records may vary slightly from our data, if they occured in-between our weather recording intervals... More about our weather records

Advertising

Rheine Weather History for the Previous 24 Hours

Scroll right to see more
 ConditionsComfort  
Time TempWeatherWind HumidityBarometerVisibility
11:39 am
Fri, Jul 21
66 °FPassing clouds.7 mph52%29.98 "HgN/A
11:20 am66 °FPassing clouds.6 mph52%29.98 "HgN/A
10:20 am66 °FScattered clouds.5 mph64%29.98 "HgN/A
9:20 am63 °FScattered clouds.6 mph68%29.98 "HgN/A
8:20 am61 °FScattered clouds.3 mph83%29.98 "HgN/A
7:20 am57 °FScattered clouds.2 mph94%29.98 "HgN/A
6:20 am54 °FPartly sunny.2 mph100%29.95 "HgN/A
5:20 am54 °FCool.1 mph94%29.95 "HgN/A
4:20 am55 °FCool.2 mph94%29.92 "HgN/A
3:20 am57 °FCool.2 mph88%29.92 "HgN/A
2:20 am59 °FCool.3 mph88%29.92 "HgN/A
1:20 am63 °FMild.3 mph77%29.92 "HgN/A
12:20 am64 °FMild.7 mph73%29.89 "HgN/A
11:20 pm
Thu, Jul 20
64 °FMild.9 mph73%29.89 "HgN/A
10:20 pm66 °FMild.12 mph68%29.86 "HgN/A
9:20 pm70 °FMild.20 mph64%29.83 "HgN/A
8:20 pm73 °FMild.9 mph57%29.77 "HgN/A
7:20 pm77 °FWarm.10 mph47%29.77 "HgN/A
6:20 pm77 °FWarm.12 mph47%29.74 "HgN/A
5:20 pm77 °FWarm.12 mph54%29.74 "HgN/A
4:20 pm75 °FMild.7 mph69%29.74 "HgN/A
3:38 pm73 °FThunderstorms. Scattered clouds.7 mph74%29.74 "HgN/A
3:26 pm73 °FThunderstorms. Scattered clouds.12 mph69%29.74 "HgN/A
2:20 pm73 °FBroken clouds.8 mph74%29.74 "HgN/A
1:20 pm73 °FBroken clouds.8 mph78%29.77 "HgN/A
Weather by CustomWeather, © 2017

See weather overviewHow to use our weather pages